sat.trackr.live / text

‹ back to catalog

STARLINK-5242

NORAD 54173 · 2022-141S

PAYLOAD ACTIVE UNKNOWN

§ Identity

Operator
Country
US
Launch date
2022-10-28
Launch site
AFWTR
Launch vehicle
Mass (kg)
RCS (m²)

Purposes: comms

External: N2YO · Heavens-Above · Gunter

§ Orbital elements

Epoch: 2026-05-25T01:33:40.650912Z

Period
95.44 min
Inclination
53.2141°
Eccentricity
0.0001402
Mean motion
15.08847185 rev/d
Perigee alt
538.8 km
Apogee alt
540.7 km
Semi-major
6,917.9 km
B*
-8.6015e-5
RAAN
20.8374°
Arg perigee
105.6942°
Mean anomaly
254.4205°
Rev number
19,739

§ Raw data

STARLINK-52421 54173U 22141S   26145.06505383 -.00001657  00000+0 -86015-4 0  99922 54173  53.2141  20.8374 0001402 105.6942 254.4205 15.08847185197394

JSON: /api/v1/satellites/54173 · /tle

For live sub-satellite position, see the globe view (requires WebGL).

§ Visibility from observer

Set your observer location to see the next 7 days of passes ≥ 10°. The values pass through the URL so the page stays shareable.

No JS? Fill the form by hand. The geolocation button needs JavaScript.